Regional Weather Roundup
Issued by NWS

Home | Current Version | Previous Version | Text Only | Print | Product List | Glossary On
Versions: 1 2 3 4 5 6 7 8 9 10 11 12 13 14 15 16 17 18 19 20 21 22 23 24 25 26 27 28 29 30 31 32 33 34 35 36 37 38 39 40 41 42 43 44 45 46 47 48 49 50
000
ASUS43 KMPX 151701
RWRMN
WEATHER ROUNDUP FOR MINNESOTA
NATIONAL WEATHER SERVICE TWIN CITIES/CHANHASSEN MN
1100 AM CST FRI DEC 15 2017


NOTE: "FAIR" INDICATES FEW OR NO CLOUDS BELOW 12,000 FEET WITH NO
SIGNIFICANT WEATHER AND/OR OBSTRUCTIONS TO VISIBILITY. N/A MEANS
CURRENT SKY AND/OR WEATHER CONDITIONS ARE NOT AVAILABLE.

MNZ060>063-068>070-151800-
   Twin Cities Metro

CITY           SKY/WX    TMP DP  RH WIND       PRES   REMARKS
TWIN CITIES    PTSUNNY   25  20  81 NE5       29.88S WCI  19
ST PAUL        CLOUDY    24  17  74 N6        29.90S WCI  17
CRYSTAL        CLOUDY    22  13  68 N6        29.88S WCI  14
BLAINE         PTSUNNY   21  16  79 N3        29.88S
LAKEVILLE        N/A     25  21  86 CALM      29.87S
EDEN PRAIRIE   CLOUDY    26  20  77 W3        29.86F
SOUTH ST PAUL  CLOUDY    24  18  75 CALM      29.88S
LAKE ELMO      CLOUDY    21  14  73 NE3       29.89S
$$
MNZ001>005-007-008-013>017-022>024-027-028-151800-
   Northwest Minnesota

CITY           SKY/WX    TMP DP  RH WIND       PRES   REMARKS
BEMIDJI        CLOUDY     9   5  82 SE3       29.81F
HALLOCK        CLOUDY    16  10  79 SE10      29.80F WCI   3
ROSEAU         CLOUDY     9   5  85 SE5       29.81F WCI   0
WARROAD        CLOUDY     7   3  85 CALM      29.82F
CROOKSTON      CLOUDY    18  14  86 S7        29.83F WCI   8
FOSSTON        FLURRIES  12   9  85 S6        29.82F WCI   3
DETROIT LAKES  CLOUDY    19  18  93 S3        29.82F
MOORHEAD       DRIZZLE   19  16  86 CALM      29.83F
PARK RAPIDS    CLOUDY    11   8  88 CALM      29.81S
MAHNOMEN       CLOUDY    14  11  85 SE5       29.83F WCI   7
$$
MNZ006-009>011-018-025>026-151800-
   North Central Minnesota

CITY           SKY/WX    TMP DP  RH WIND       PRES   REMARKS
BAUDETTE       CLOUDY     7   3  84 CALM      29.81F
FLAG ISLAND    FLURRIES   7   1  78 CALM      29.81F
INTL FALLS     CLOUDY     7   0  73 NW3       29.82F
WASKISH        CLOUDY     9   5  85 SW3       29.83F
BIG FORK       CLOUDY     9   3  78 CALM      29.82S
LONGVILLE      FLURRIES  10   7  85 CALM      29.84R
GRAND RAPIDS   CLOUDY    18   9  68 NW3       29.85S
CRANE LAKE     CLOUDY     7   1  78 N3        29.84F
ORR            CLOUDY     7   0  72 CALM      29.79S
COOK           CLOUDY     9   1  72 W5        29.82S WCI   0
WALKER         CLOUDY     8   4  82 CALM      29.84R
$$
MNZ012-019>021-037-151800-
   Northeast Minnesota

CITY           SKY/WX    TMP DP  RH WIND       PRES   REMARKS
DULUTH         PTSUNNY    9   2  73 W9        29.82R WCI  -4
ELY            CLOUDY     7   1  78 W8        29.79S WCI  -6
HIBBING        MOSUNNY    4   0  83 NW3       29.83S
EVELETH        PTSUNNY    7  -1  70 W5        29.83S WCI  -2
DULUTH HARBOR  MOSUNNY   14   7  73 NW8       29.89S WCI   3
TWO HARBORS    FLURRIES  19   7  58 W9        29.81F WCI   9
SILVER BAY     SUNNY     14   3  62 NW7       29.80F WCI   4
GRAND MARAIS     N/A     14   1  56 VRB5G16   29.84S WCI   6
G MARAIS ARPRT MOSUNNY    7  -4  61 NW7       29.72S WCI  -5
$$
MNZ029>031-032-039>041-046>048-054>057-064-151800-
   West Central Minnesota

CITY           SKY/WX    TMP DP  RH WIND       PRES   REMARKS
FERGUS FALLS   FLURRIES  21  16  79 SE6       29.86F WCI  14
WHEATON        CLOUDY    25  21  86 SE7       29.85F WCI  17
MORRIS         CLOUDY    25  21  86 SE6       29.83F WCI  18
ALEXANDRIA     PTSUNNY   21  15  78 CALM      29.84S
ELBOW LAKE     FLURRIES  22  19  87 E6        29.83F WCI  15
WADENA         CLOUDY    16  12  86 CALM      29.82F
GLENWOOD       CLOUDY    23  18  80 CALM      29.84F
APPLETON       CLOUDY    28  25  86 SE6       29.85F WCI  22
BENSON           N/A     27  23  86 S3        29.87R
ORTONVILLE     CLOUDY    27  23  86 SE6       29.84F WCI  20
MADISON        CLOUDY    30  30 100 CALM      29.85S
WILLMAR        CLOUDY    27  23  86 CALM      29.87F
$$
MNZ033>034-036-042>043-049>051-058-059-151800-
   Central Minnesota

CITY           SKY/WX    TMP DP  RH WIND       PRES   REMARKS
ST CLOUD       CLOUDY    21  15  78 CALM      29.87S
SAUK CENTRE    CLOUDY    20  14  77 NW3       29.86R
PAYNESVILLE    CLOUDY    23  19  83 CALM      29.86F
AITKIN         MOSUNNY   16   7  67 SW5       29.83S WCI   9
PINE RIVER     CLOUDY    12   9  85 CALM      29.87R
BRAINERD       CLOUDY    17  10  74 CALM      29.85R
STAPLES        CLOUDY    16  10  79 CALM      29.84S
LITTLE FALLS   CLOUDY    19  10  68 W3        29.86S
LITCHFIELD     CLOUDY    27  21  80 CALM      29.87S
BUFFALO        CLOUDY    22  15  76 CALM      29.89F
MAPLE LAKE     CLOUDY    22  18  81 CALM      29.88F
HUTCHINSON     LGT SNOW  26  24  93 CALM      29.87F
$$
MNZ037-044-045-052-053-151800-
   East Central Minnesota

CITY           SKY/WX    TMP DP  RH WIND       PRES   REMARKS
PRINCETON      PTSUNNY   21  12  68 CALM      29.87F
MORA           PTSUNNY   19  10  68 CALM      29.88F
CAMBRIDGE      FLURRIES  18   9  68 CALM      29.88F
RUSH CITY      CLOUDY    18  10  72 W3        29.89S
MOOSE LAKE     PTSUNNY   16   7  67 NW5       29.85S WCI   9
HINCKLEY       PTSUNNY   19  10  68 W3        29.86F
CLOQUET        FLURRIES  10   1  67 W8        29.84S WCI  -1
MCGREGOR       CLOUDY    16   9  73 CALM      29.85S
$$
MNZ071>073-080-081-089-090-097-098-151800-
   Southwest Minnesota

CITY           SKY/WX    TMP DP  RH WIND       PRES   REMARKS
MONTEVIDEO     CLOUDY    28  27  93 SE6       29.86S WCI  22
GRANITE FALLS  PTSUNNY   32  30  92 E3        29.88S
CANBY          PTSUNNY   34  30  83 CALM      29.86S
MARSHALL       CLOUDY    35  28  75 W9        29.86F WCI  28
REDWOOD FALLS  CLOUDY    32  29  88 CALM      29.87S
OLIVIA         CLOUDY    30  27  86 E3        29.87R
PIPESTONE      CLOUDY    30  27  86 W9        29.84S WCI  22
WINDOM           N/A     34  21  60 W9        29.85F WCI  26
WORTHINGTON    MOSUNNY   33  28  81 W10       29.86F WCI  25
JACKSON        CLOUDY    34  30  86 MISG      29.87F
SLAYTON        CLOUDY    32  29  88 W7        29.86F WCI  26
$$
MNZ065>067-074>077-082>085-091>093-151800-
   South Central Minnesota

CITY           SKY/WX    TMP DP  RH WIND       PRES   REMARKS
MANKATO        FLURRIES  31  28  89 W3        29.87F
NEW ULM        FLURRIES  32  28  86 W8        29.86F WCI  25
ST JAMES       CLOUDY    34  30  86 W8        29.88F WCI  27
FAIRMONT       FLURRIES  33  29  85 W10       29.88F WCI  25
GLENCOE        CLOUDY    26  23  87 CALM      29.86F
FARIBAULT      CLOUDY    27  23  86 CALM      29.87S
OWATONNA       CLOUDY    28  27  93 W3        29.87S
WASECA         CLOUDY    32  30  93 SW6       29.89S WCI  26
ALBERT LEA     LGT SNOW  30  27  86 W7        29.87F WCI  23
$$
MNZ078>079-086>088-094>096-151800-
   Southeast Minnesota

CITY           SKY/WX    TMP DP  RH WIND       PRES   REMARKS
ROCHESTER      CLOUDY    28  26  92 W8        29.86F WCI  20
RED WING       CLOUDY    27  18  69 W5        29.87F WCI  21
STANTON        CLOUDY    28  23  81 CALM      29.86F
DODGE CENTER   CLOUDY    28  27  93 W5        29.85F WCI  23
WINONA         CLOUDY    30  23  74 CALM      29.90F
AUSTIN         CLOUDY    30  27  86 W7        29.86F WCI  23
PRESTON        CLOUDY    28  25  89 W9        29.86F WCI  19
$$
ABBREVIATIONS USED IN REMARKS
   TC - TEMPERATURES IN CELSIUS
  WCI - WIND CHILL INDEX
   HX - HEAT INDEX
  VSB - VISIBILITY
$$




USA.gov is the U.S. government's official web portal to all federal, state and local government web resources and services.